Weather in Linda

Russia / Nizhny Novgorod Oblast'     56°36′56″N   44°05′48″E
temp.,
°C
wind,
m/s
gust,
m/s
humid.,
%
clouds,
%
prec.,
mm/h
press.,
hPa
HPBL,
m
16 may, sun
sun1600:00+16ssw36935 0.0 1012109
03:00+15s229322 0.0 101332
06:00+16s36875 0.0 1013213
09:00+21sw58651 0.0 1014844
12:00+23sw68525 0.0 10141547
15:00+23sw68510 0.0 10141986
18:00+22sw47615 0.0 1014311
21:00+17sw337433 0.0 101540
17 may, mon
mon1700:00+15w23862 0.0 101633
03:00+14wsw22885 0.0 101610
06:00+16wsw118081 0.0 101772
09:00+21wsw11635 0.0 1018491
12:00+24ssw124973 0.0 10181092
15:00+25sse224694 0.0 10171229
18:00+25ese236369 0.0 101699
21:00+19e358186 0.5 101765
18 may, tue
tue1800:00+17ese359195 0.0 101781
03:00+16ese3692100 0.0 101693
06:00+18ese3683100 0.0 1017142
09:00+23ese475883 0.0 1016417
12:00+27se5746100 0.0 1016972
15:00+27se5846100 0.0 10151005
18:00+24ese4105966 0.0 1014266
21:00+19ese41272100 0.0 1014198
19 may, wed
wed1900:00+18ese5136980 0.0 1014241
03:00+16ese51359100 0.0 1014236
06:00+17ese513715 0.0 1014319
09:00+23se6105410 0.0 1014551
12:00+27se710465 0.0 10131249
15:00+27se7145015 0.0 10112368
18:00+20s377798 1.2 1011143
21:00+17ssw2384100 1.4 101125
20 may, thu
thu2000:00+15se359261 1.2 101293
03:00+14ese239498 3.8 101152
06:00+15sse2396100 1.0 101094
09:00+19sw2377100 1.4 1008872
12:00+12w71294100 2.7 1009560
15:00+15ssw7117783 3.4 10111149
18:00+15sw712745 0.8 10131117
21:00+13wsw512800 0.8 1015532